Regional Weather Roundup
Issued by NWS Charleston, SC

Current Version | Previous Version | Text Only | Print | Product List | Glossary Off
Versions: 1 2 3 4 5 6 7 8 9 10 11 12 13 14 15 16 17 18 19 20 21 22 23 24 25 26 27 28 29 30 31 32 33 34 35 36 37 38 39 40 41 42 43 44 45 46 47 48 49 50

000
ASUS42 KCHS 010211
RWRCHS

REGIONAL WEATHER ROUNDUP
NATIONAL WEATHER SERVICE CHARLESTON SC
900 PM EST SAT FEB 28 2015

NOTE: "FAIR" INDICATES FEW OR NO CLOUDS BELOW 12,000 FEET WITH NO
SIGNIFICANT WEATHER AND/OR OBSTRUCTIONS TO VISIBILITY.

NOT ALL STATIONS ARE QUALITY CONTROLLED BY THE NATIONAL
WEATHER SERVICE. USE DATA WITH CAUTION...ESPECIALLY
DEWPOINT OBSERVATIONS.

SCZ027-030-031-034>040-042>050-010300-
...SOUTHEAST SOUTH CAROLINA...

CITY           SKY/WX    TMP DP  RH WIND       PRES   REMARKS
N CHARLESTON   MOCLDY    45  36  70 NE9       30.59S
WATERFRONT PRK   N/A     45 N/A N/A NE14G20     N/A
MOUNT PLEASANT MOCLDY    45  32  61 NE7       30.60S
PINOPOLIS        N/A     46  34  61 NE12      30.53R
MONCKS CORNER  CLOUDY    46  32  57 NE10      30.61R
SUMMERVILLE    CLOUDY    46  34  61 NE7       30.60S
BEAUFORT MCAS  CLOUDY    47  36  65 NE13      30.56R
BEAUFORT ARPT  CLOUDY    45  39  81 NE10      30.56R
HILTON HEAD IS CLOUDY    46  34  61 N13G22    30.56S
WALTERBORO     CLOUDY    46  36  66 NE7       30.59R
ALLENDALE      CLOUDY    45  39  81 VRB5      30.58R

...SOUTHERN MIDLANDS AND PEE DEE...

CITY           SKY/WX    TMP DP  RH WIND       PRES   REMARKS
GEORGETOWN     NOT AVBL
KINGSTREE      NOT AVBL
ORANGEBURG     CLOUDY    47  28  47 E10       30.60S
BARNWELL       CLOUDY    46  32  57 E8        30.59S
AIKEN          MIX PCPN  43  34  70 NE6       30.61S
MANNING        LGT RAIN  45  32  61 NE6       30.61S
COLUMBIA       CLOUDY    47  26  44 E8        30.61R
SUMTER         LGT RAIN  42  30  62 NE12      30.61S
FLORENCE       CLOUDY    42  24  49 NE12      30.64S
MYRTLE BEACH   CLOUDY    45  25  45 NE12      30.66R
N MYRTLE BEACH CLOUDY    43  24  47 NE9       30.64R

$$

GAZ063-065-086>088-099>101-113>116-118-119-134>141-150-010300-
...SOUTHEAST GEORGIA...

CITY           SKY/WX    TMP DP  RH WIND       PRES   REMARKS
SAVANNAH ARPT  LGT RAIN  45  36  70 NE9       30.56R
HUNTER AAF     LGT RAIN  45  36  70 NE8       30.53R
FORT STEWART   NOT AVBL
STATESBORO     LGT RAIN  43  43 100 NE6       30.57R
SYLVANIA       DRIZZLE   44  42  94 E10       30.57R
CLAXTON        DRIZZLE   43  43 100 NE8       30.55R

...CSRA...CENTRAL AND FAR SOUTHEAST GEORGIA...

CITY           SKY/WX    TMP DP  RH WIND       PRES   REMARKS
THOMSON        CLOUDY    49  34  57 NE6       30.62R
AUGUSTA-BUSH   LGT RAIN  45  36  70 NE12      30.59R
AUGUSTA-DANIEL CLOUDY    46  35  65 NE12      30.58S
SWAINSBORO     LGT RAIN  45  43  93 E7        30.56S
VIDALIA        DRIZZLE   43  43 100 NE9       30.55R
EASTMAN        LGT RAIN  44  44 100 E8        30.56R
HAZLEHURST     DRIZZLE   44  44 100 NE8       30.52S
ALMA           CLOUDY    43  41  93 NE6       30.51R
WAYCROSS       CLOUDY    47  45  92 NE9       30.51R
JESUP          CLOUDY    45  43  93 E6        30.52S
BAXLEY         CLOUDY    45  43  93 NE8       30.52S
BRUNSWICK      CLOUDY    46  43  87 NE15G24   30.50F
SAINT SIMONS   CLOUDY    48  43  82 NE17G29   30.49S

$$

SCZ027-028-034-036>038-045-046-048>050-GAZ119-141-010300-
...LAKE AND SUPPLEMENTAL COASTAL OBSERVATIONS...

STATION/POSITION TIME  TEMP    WIND        PRES    WAVE   SWELL
                       AIR SEA DIR/SP/G            HT/PER HT/PER/DIR
                 (UTC) (F)     (DEG/KT/KT) (MB)    (FT/S) (FT/S/D)
UPR LAKE MARION  NOT AVBL
WINYAH BAY       NOT AVBL
LAKE MURRAY      0100   45      30/  3/  4 1035.9R
ACE BASIN NERRS  NOT AVBL
FORT PULASKI     0112   47 49   40/ 17/ 23 1034.5R
SAPELO ISLAND    0100   45      30/ 14     1032.0S

$$

ANZ835-935-AMZ111-154-330-350-352-354-370-450-454-472-010300-
...C-MAN AND BUOY OBSERVATIONS...

STATION/POSITION TIME  TEMP    WIND        PRES    WAVE   SWELL
                       AIR SEA DIR/SP/G            HT/PER HT/PER/DIR
                 (UTC) (F)     (DEG/KT/KT) (MB)    (FT/S) (FT/S/D)
BUOY 41004       0150   56 68   40/ 27/ 35 1033.1R  10/ 8   5/16
BUOY 41008       0150   53 52   40/ 23/ 29 1031.7R   8/ 8
FOLLY BEACH CMAN 0200   46      30/ 22/ 28 1035.9R
CAPERS NEARSHORE NOT AVBL
FRIPP NEARSHORE  0100   48      50/ 21/ 25 1032.5F


STATION/POSITION TIME  TEMP    WIND        PRES    WAVE   SWELL
                       AIR SEA DIR/SP/G            HT/PER HT/PER/DIR
                 (UTC) (F)     (DEG/KT/KT) (MB)    (FT/S) (FT/S/D)
5E ST. MARYS GA  0121      52                N/A     8/ 8   2/100/11
FRYING PAN BUOY  0150   49 62   50/ 25/ 31 1036.6R   9/ 6
BUOY 41025       NOT AVBL
CAPE LOOKOUT NC  0100   36      20/ 16/ 18 1038.8R
BUOY 41002       0150   65 70   60/ 23/ 29 1033.9R  12/ 8
BUOY 41010       0120   71 73   80/ 21/ 25 1028.6R
ST AUGUSTINE FL  0200   54     340/ 14/ 16 1030.8R


$$



USA.gov is the U.S. government's official web portal to all federal, state and local government web resources and services.